Flag for U.S.A. Weather past 2 weeks in Anchorage, Alaska, U.S.A.

Now
46 °F

Partly sunny.


Feels Like: 42 °F
Forecast: 41 / 52 °F
Wind: 8 mph from South

Location: Lake Hood Seaplane

Current Time: Apr 27, 2015 at 10:47:10 PM

Latest Report: Apr 27, 2015 at 9:53 PM


Visibility: 10 mi

Pressure: 29.68 "Hg

Humidity: 51%

Dew point: 29 °F

Location of AnchorageLocation

Historic Weather in Anchorage — Graph

°F

Anchorage temperature yesterday

Maximum temperature yesterday: 57 °F (at 2:53 PM)
Minimum temperature yesterday: 36 °F (at 4:53 AM)
Average temperature yesterday: 46 °F

Past Weeks' High & Low Weather Summary

 TemperatureHumidityPressure
High57 °F (Apr 26, 2:53 PM)96% (Apr 20, 4:53 PM)30.05 "Hg (Apr 20, 4:53 PM)
Low27 °F (Apr 14, 3:53 AM)21% (Apr 24, 4:53 PM)29.31 "Hg (Apr 15, 2:53 AM)
Average41 °F58%29.70 "Hg
* Reported Apr 12 9:53 PM — Apr 27 9:53 PM, Anchorage, Weather by CustomWeather, © 2015

Note: Actual official high and low records may vary slightly from our data, if they occured in-between our weather recording intervals... More about our weather records

Advertising

Anchorage weather history for previous 24 hours

 ConditionsComfort  
Time TempWeatherWind HumidityBarometerVisibility
9:53 PM
Mon, Apr 27
46 °FPartly sunny.8 mph51%29.68 "Hg10 mi
8:53 PM48 °FPartly sunny.8 mph44%29.68 "Hg10 mi
7:53 PM50 °FPartly sunny.10 mph43%29.68 "Hg10 mi
6:53 PM52 °FScattered clouds.12 mph40%29.67 "Hg10 mi
5:53 PM51 °FOvercast.12 mph44%29.68 "Hg10 mi
4:53 PM53 °FMostly cloudy.15 mph38%29.68 "Hg10 mi
3:53 PM53 °FMostly cloudy.3 mph47%29.69 "Hg10 mi
2:53 PM52 °FMore clouds than sun.6 mph49%29.69 "Hg10 mi
1:53 PM51 °FOvercast.6 mph54%29.69 "Hg10 mi
12:53 PM49 °FMostly cloudy.5 mph59%29.70 "Hg10 mi
11:53 AM48 °FLight rain. More clouds than sun.12 mph61%29.70 "Hg10 mi
10:53 AM46 °FMostly cloudy.9 mph71%29.70 "Hg10 mi
9:53 AM48 °FLight rain. Mostly cloudy.9 mph61%29.68 "Hg10 mi
8:53 AM47 °FOvercast.No wind48%29.67 "Hg10 mi
7:53 AM43 °FOvercast.No wind65%29.65 "Hg10 mi
6:53 AM43 °FOvercast.No wind62%29.63 "Hg10 mi
5:53 AM44 °FOvercast.No wind58%29.62 "Hg10 mi
4:53 AM43 °FOvercast.No wind62%29.60 "Hg10 mi
3:53 AM47 °FPassing clouds.7 mph56%29.59 "Hg10 mi
2:53 AM47 °FPassing clouds.6 mph52%29.58 "Hg10 mi
1:53 AM46 °FPassing clouds.3 mph54%29.58 "Hg10 mi
12:53 AM48 °FPassing clouds.3 mph48%29.57 "Hg10 mi
11:53 PM
Sun, Apr 26
50 °FOvercast.5 mph41%29.56 "Hg10 mi
10:53 PM50 °FOvercast.7 mph39%29.56 "Hg10 mi
Weather by CustomWeather, © 2015

See weather overviewHow to use our weather pages